Starlink 3562

operational
NORAD ID: 51861 Int'l Des: 2022-022 Owner: SPXS Country: US Constellation: starlink
LEOCIRCULAR

Über Starlink 3562

Beschreibung wird geladen...

Live-Position

3D-Globus wird geladen...

Nächste Überflüge

Höhenverlauf

Altitude vs Time

uPlot chart will show altitude changes over time

Zweizeiliger Elementsatz

1 51861U 22022K 25354.42440111 .00000423 00000-0 44667-4 0 9995
2 51861 53.2191 4.9573 0001272 83.5216 276.5921 15.08840539211064
Epoch: 20. Dez. 2025 • Age: 9 hours

Aktueller Status

Höhe 539.8 km
Geschwindigkeit 7.59 km/s
Subsatellitenpunkt 8.70°N, 163.98°E
Startdatum 3. März 2022
Alter 3.8 years
Typ internet

Technische Details

Klassifizierung Payload
Masse 297.00 kg
Trockenmasse 275.00 kg
Gesamtmasse 297.00 kg
Länge 0.20 m
Durchmesser 2.80 m
Spannweite 9.00 m
Form Box + pan
Hersteller SPXS
Bus-Typ Starlink
Phasenstatus In Orbit
Besitzer/Staat SPXS/US

Große Konstellationen

Loading constellations...